SPACEBEE-7

Last updated on Sat Aug 30 2025 00:03:48 GMT+0000 (Coordinated Universal Time)

1 43816U 18099BL 25240.73125023 .00049289 00000+0 11920-2 0 9991 2 43816 97.4879 312.6834 0006433 177.8935 182.2340 15.40963916369126
UTC large
Height (km)
Speed (km/s)
/
Latitude / Longitude
Inclination (degrees)
Orbital Period (minutes)
Azimuth
Elevation
Range (km)
Doppler Factor

Next 0 passes for location: London (51.5072 / 0.1276)

Sorry there are no passes over London.